This is the latest recevied weather packets stored in our database for station/object K7YVO. If no packets are shown the sender has not sent any weather packets the latest 10 day(s).
| Time | Temp. | Humidity | Pressure | Rain* | Wind** | Luminosity | Snow |
|---|---|---|---|---|---|---|---|
| 1777782198 | 17.78° C | 76% | 1015 hPa | 0 mm | - | 0 W/m² | - |
| 1777781894 | 17.78° C | 75% | 1015 hPa | 0 mm | - | 0 W/m² | - |
| 1777781592 | 17.78° C | 75% | 1015 hPa | 0 mm | - | 0 W/m² | - |
| 1777781289 | 17.78° C | 75% | 1015 hPa | 0 mm | - | 0 W/m² | - |
| 1777780987 | 17.78° C | 75% | 1015.1 hPa | 0 mm | - | 0 W/m² | - |
| 1777780683 | 17.78° C | 75% | 1015 hPa | 0 mm | - | 0 W/m² | - |
| 1777780381 | 17.78° C | 76% | 1015.1 hPa | 0 mm | - | 0 W/m² | - |
| 1777780078 | 17.78° C | 76% | 1015.1 hPa | 0 mm | - | 0 W/m² | - |
| 1777779775 | 17.78° C | 75% | 1015.1 hPa | 0 mm | - | 0 W/m² | - |
| 1777779472 | 17.78° C | 74% | 1014.9 hPa | 0 mm | - | 0 W/m² | - |
| 1777779170 | 18.33° C | 73% | 1014.8 hPa | 0 mm | - | 0 W/m² | - |
| 1777778868 | 18.33° C | 73% | 1014.9 hPa | 0 mm | - | 1 W/m² | - |
| 1777778566 | 18.33° C | 72% | 1015 hPa | 0 mm | - | 1 W/m² | - |
| 1777778263 | 18.89° C | 71% | 1014.9 hPa | 0 mm | - | 2 W/m² | - |
| 1777777961 | 18.89° C | 70% | 1014.8 hPa | 0 mm | - | 4 W/m² | - |
| 1777777657 | 18.89° C | 70% | 1014.8 hPa | 0 mm | - | 5 W/m² | - |
| 1777777354 | 18.89° C | 70% | 1014.9 hPa | 0 mm | - | 6 W/m² | - |
| 1777777050 | 18.89° C | 70% | 1014.9 hPa | 0 mm | - | 9 W/m² | - |
| 1777776748 | 18.89° C | 70% | 1014.9 hPa | 0 mm | - | 11 W/m² | - |
| 1777776445 | 18.89° C | 69% | 1014.7 hPa | 0 mm | - | 13 W/m² | - |
| 1777776142 | 19.44° C | 69% | 1014.9 hPa | 0 mm | - | 17 W/m² | - |
| 1777775839 | 19.44° C | 68% | 1014.8 hPa | 0 mm | - | 21 W/m² | - |
| 1777775535 | 19.44° C | 68% | 1014.9 hPa | 0 mm | - | 26 W/m² | - |
| 1777775232 | 19.44° C | 68% | 1014.9 hPa | 0 mm | - | 31 W/m² | - |
| 1777774931 | 19.44° C | 68% | 1014.8 hPa | 0 mm | - | 35 W/m² | - |
* Rain latest hour (hover to see other rain measurements)
** Current wind speed in m/s (hover to see current wind gust speed)